Total_Precipitation_Accumulation
2.26 2.46 2.77 3.25 4.03 4.82 5.56 5.69 6.06 5.68 5.10 4.57 4.13 4.02 3.87 3.58 3.49 3.35 3.30 3.26 3.09 3.06 3.36 3.18 3.33 3.15 3.23 3.25 3.30 3.59 3.80 3.51 3.53 4.01 3.69 3.06 2.60 2.64 2.55 2.61 2.70 2.71 2.73
2.33 2.68 3.19 3.56 3.57 4.15 4.93 5.01 4.72 4.59 4.23 3.88 3.73 3.58 3.54 3.21 3.08 2.97 3.12 2.95 2.85 2.97 3.01 3.20 3.00 2.95 3.15 3.18 3.26 3.55 3.51 3.24 3.49 4.06 4.25 3.73 3.32 2.92 2.42 2.49 2.58 2.66 2.91
2.15 2.57 2.95 3.37 3.38 3.79 3.92 3.62 3.50 3.61 3.61 3.45 3.36 3.27 3.31 3.12 2.90 2.79 2.89 2.77 2.59 2.66 2.72 2.70 2.75 2.91 2.68 2.99 3.31 3.42 3.49 3.47 3.38 3.59 4.13 4.00 3.62 3.22 2.81 2.61 2.68 2.84 3.05
1.61 1.89 2.18 2.59 2.86 2.97 2.86 2.90 2.93 3.02 3.24 3.22 3.05 2.90 2.67 2.61 2.60 2.55 2.64 2.77 2.51 2.34 2.35 2.37 2.60 2.75 2.71 3.09 2.83 3.00 3.34 3.59 3.34 3.29 3.28 3.39 3.68 3.70 3.34 2.92 2.73 2.79 2.92
1.32 1.52 1.50 1.69 2.00 2.27 2.33 2.38 2.77 2.91 2.92 2.91 2.92 2.98 2.70 2.56 2.56 2.72 2.95 2.93 2.58 2.21 2.05 2.23 2.51 2.67 2.73 2.83 2.80 2.95 2.98 3.07 3.08 3.13 3.11 3.30 3.62 3.46 3.36 3.27 3.07 2.86 2.68
1.07 1.29 1.36 1.39 1.54 1.66 1.77 1.94 2.33 2.59 2.63 2.57 2.56 2.61 2.67 2.70 2.56 2.59 2.72 2.66 2.51 2.33 2.13 2.18 2.49 2.61 2.67 2.74 2.81 2.81 2.73 2.82 2.94 2.99 3.02 3.24 3.31 3.34 3.47 3.27 2.99 2.87 2.63
0.91 1.11 1.15 1.27 1.38 1.34 1.40 1.66 1.99 2.20 2.24 2.25 2.32 2.40 2.63 2.63 2.45 2.30 2.42 2.46 2.32 2.25 2.25 2.21 2.63 2.81 2.80 2.73 2.85 2.84 2.75 2.86 2.95 2.97 2.98 3.02 2.98 3.12 3.45 3.45 3.02 2.77 2.55
0.90 0.93 0.90 0.96 1.16 1.21 1.27 1.44 1.61 1.79 1.89 2.06 2.25 2.28 2.46 2.31 2.24 2.48 2.33 2.22 2.03 2.12 2.39 2.54 2.63 2.70 2.74 2.65 2.96 2.75 2.73 2.85 2.87 2.73 3.15 3.07 2.94 3.29 3.57 3.76 3.82 3.33 2.97
0.85 0.92 0.89 0.87 0.91 0.96 1.16 1.44 1.61 1.67 1.71 1.85 2.08 2.12 2.12 2.18 2.33 2.56 2.51 2.31 2.24 2.15 2.42 2.60 2.74 2.70 2.69 2.83 3.09 2.96 2.95 3.07 2.95 2.94 3.24 3.13 3.00 3.18 3.40 3.76 4.08 4.08 3.63
0.92 0.98 0.89 0.88 0.87 0.88 1.01 1.14 1.33 1.57 1.79 1.79 1.79 1.82 2.08 2.16 2.31 2.44 2.36 2.35 2.36 2.41 2.59 2.63 2.62 2.55 2.52 2.71 3.10 3.05 3.06 3.22 3.15 3.14 3.21 3.17 3.01 3.16 3.24 3.46 3.84 4.17 4.12
0.95 0.99 0.86 0.85 0.85 0.92 0.95 1.13 1.31 1.56 1.76 1.69 1.74 1.94 2.13 2.20 2.29 2.47 2.42 2.38 2.42 2.54 2.61 2.62 2.60 2.50 2.38 2.51 2.75 2.83 3.06 3.13 3.17 3.15 3.22 3.18 3.32 3.36 3.28 3.45 3.56 3.80 4.00
1.06 1.13 1.03 1.10 1.10 1.18 1.18 1.25 1.34 1.51 1.62 1.62 1.75 1.95 2.09 2.14 2.23 2.30 2.41 2.47 2.48 2.61 2.67 2.69 2.63 2.39 2.36 2.50 2.59 2.72 2.94 3.03 3.12 3.27 3.40 3.12 3.28 3.41 3.35 3.41 3.37 3.50 3.85
1.35 1.30 1.21 1.33 1.32 1.33 1.44 1.44 1.48 1.54 1.66 1.82 1.88 1.88 1.94 1.98 2.08 2.18 2.27 2.40 2.50 2.60 2.68 2.68 2.56 2.46 2.49 2.59 2.66 2.77 2.92 2.97 3.07 3.25 3.20 3.10 3.28 3.15 3.27 3.35 3.24 3.25 3.31
1.19 1.22 1.29 1.28 1.32 1.43 1.60 1.72 1.72 1.68 1.76 1.82 1.85 1.87 1.90 2.00 2.17 2.30 2.38 2.44 2.43 2.46 2.45 2.43 2.50 2.55 2.57 2.61 2.66 2.68 2.72 2.74 2.80 2.81 2.71 2.62 2.66 2.73 2.97 2.94 2.92 3.03 3.16
1.13 1.10 1.17 1.29 1.48 1.56 1.56 1.59 1.64 1.70 1.88 1.88 1.80 1.87 2.06 2.15 2.24 2.26 2.28 2.35 2.35 2.23 2.38 2.40 2.49 2.55 2.49 2.37 2.52 2.54 2.49 2.66 2.56 2.42 2.36 2.34 2.46 2.54 2.65 2.45 2.55 2.80 2.87
1.14 1.16 1.27 1.45 1.48 1.43 1.45 1.43 1.38 1.48 1.72 1.88 1.96 2.02 2.07 2.04 2.13 2.16 2.17 2.22 2.28 2.34 2.41 2.41 2.51 2.55 2.36 2.50 2.57 2.60 2.58 2.62 2.51 2.44 2.35 2.21 2.24 2.29 2.34 2.31 2.34 2.54 2.65
1.06 1.21 1.34 1.39 1.41 1.46 1.48 1.37 1.25 1.34 1.68 1.81 1.90 2.13 2.20 2.09 2.17 2.19 2.23 2.24 2.28 2.44 2.52 2.62 2.69 2.61 2.74 2.78 2.56 2.58 2.53 2.56 2.55 2.53 2.49 2.16 1.96 2.21 2.15 2.27 2.21 2.13 2.21
1.00 1.17 1.30 1.36 1.41 1.40 1.39 1.34 1.33 1.39 1.65 1.90 2.07 2.40 2.55 2.37 2.36 2.39 2.42 2.48 2.61 2.65 2.73 2.77 2.70 2.68 2.79 2.86 2.48 2.40 2.27 2.30 2.38 2.38 2.43 2.45 2.36 2.35 2.39 2.40 2.30 2.12 2.07
1.17 1.25 1.39 1.50 1.59 1.67 1.66 1.61 1.67 1.79 1.96 2.14 2.31 2.59 2.85 2.95 2.88 2.69 2.77 2.86 2.87 2.83 2.91 3.00 3.00 2.88 2.92 2.84 2.41 2.27 2.08 2.13 2.17 2.22 2.21 2.24 2.16 2.25 2.20 2.13 2.06 1.98 1.89
1.21 1.42 1.61 1.63 1.63 1.79 1.81 1.85 1.99 2.23 2.33 2.31 2.36 2.59 2.86 2.99 2.95 2.92 3.10 3.20 3.12 3.04 3.12 3.02 2.91 2.75 2.71 2.73 2.36 2.14 1.96 2.03 2.09 2.18 2.14 2.14 2.03 2.03 1.94 1.83 1.82 1.72 1.71
1.17 1.22 1.27 1.45 1.56 1.68 1.86 2.12 2.20 2.33 2.41 2.49 2.49 2.63 2.88 3.17 3.12 3.20 3.30 3.39 3.40 3.45 3.46 3.35 3.21 2.97 2.83 2.82 2.46 2.21 1.96 1.96 2.00 1.90 1.86 1.89 1.92 1.73 1.70 1.68 1.64 1.69 1.75
1.19 1.25 1.23 1.36 1.57 1.81 2.04 2.22 2.29 2.38 2.54 2.60 2.59 2.67 2.95 3.08 3.12 3.29 3.37 3.50 3.66 3.71 3.66 3.58 3.25 3.08 2.93 2.64 2.34 2.15 2.09 2.12 2.12 2.01 1.92 1.94 1.88 1.68 1.63 1.46 1.42 1.57 1.57
1.31 1.44 1.52 1.54 1.69 1.94 2.15 2.38 2.43 2.43 2.39 2.38 2.40 2.53 2.72 2.85 3.02 3.19 3.18 3.30 3.47 3.41 3.35 3.22 3.00 2.98 3.07 2.85 2.40 2.08 2.00 2.07 2.10 2.16 2.24 2.06 1.90 1.77 1.67 1.64 1.58 1.47 1.38
1.57 1.57 1.73 1.76 1.81 1.99 2.20 2.32 2.32 2.34 2.33 2.26 2.25 2.40 2.66 2.81 2.92 3.05 3.04 3.10 3.10 3.11 3.10 3.04 2.91 2.87 3.00 2.95 2.62 2.28 2.06 1.98 1.92 1.93 1.95 1.85 1.83 1.74 1.60 1.58 1.50 1.36 1.36
1.59 1.57 1.70 1.83 1.85 1.94 2.13 2.27 2.31 2.37 2.42 2.37 2.38 2.54 2.67 2.74 2.89 2.95 2.98 3.00 2.94 2.91 2.92 2.85 2.74 2.70 2.77 2.83 2.66 2.35 2.14 2.05 2.00 1.95 1.89 1.86 1.91 1.82 1.71 1.63 1.61 1.65 1.66
1.62 1.67 1.77 1.85 1.87 1.94 2.10 2.20 2.36 2.54 2.61 2.56 2.55 2.54 2.48 2.56 2.55 2.56 2.53 2.53 2.48 2.49 2.46 2.42 2.33 2.26 2.42 2.44 2.13 1.96 1.97 1.99 1.98 1.85 1.78 1.86 1.93 1.91 1.87 1.81 1.74 1.73 1.73